Location: Home
(42.5358°N, 72.7383°W)
Time: 21:05:37
(UTC-04:00)

UKube-1 - Visible Passes

Search period start: 17 August 2022 00:00
Search period end: 27 August 2022 00:00
Orbit: 608 x 615 km, 98.4° (Epoch: 17 August)

Date Brightness Start Highest point End Pass type
(mag) Time Alt. Az. Time Alt. Az. Time Alt. Az.
17 Aug ? 23:24:08 10° N 23:26:36 33° N 23:26:36 33° N visible
18 Aug ? 22:04:01 10° NE 22:04:22 11° NE 22:04:22 11° NE visible
18 Aug ? 23:38:58 10° N 23:41:21 28° NNW 23:41:21 28° NNW visible
19 Aug ? 22:18:11 10° NE 22:19:06 15° NE 22:19:06 15° NE visible
19 Aug ? 23:53:53 10° N 23:56:05 23° NNW 23:56:05 23° NNW visible
20 Aug ? 22:32:33 10° NNE 22:33:49 18° NE 22:33:49 18° NE visible
21 Aug ? 00:08:55 10° NNW 00:10:49 18° NW 00:10:49 18° NW visible
21 Aug ? 22:47:03 10° NNE 22:48:34 21° NNE 22:48:34 21° NNE visible
22 Aug ? 00:24:08 10° NNW 00:25:33 14° NW 00:25:33 14° NW visible
22 Aug ? 23:01:39 10° NNE 23:03:18 23° NNE 23:03:18 23° NNE visible
23 Aug ? 00:39:51 10° NW 00:40:16 11° NW 00:40:16 11° NW visible
23 Aug ? 23:16:19 10° N 23:18:00 23° N 23:18:00 23° N visible
24 Aug ? 23:31:05 10° N 23:32:43 22° N 23:32:43 22° N visible
25 Aug ? 23:45:55 10° N 23:47:27 20° NNW 23:47:27 20° NNW visible
26 Aug ? 22:24:55 10° NE 22:25:11 11° NE 22:25:11 11° NE visible
